Tracking 20626 objects as of 8-Apr-2020
HD Live streaming from Space Station
objects crossing your sky now

IRAZU


IRAZU is no longer on orbit
IRAZU is classified as:


NORAD ID: 43468
Int'l Code: 1998-067NR
Perigee: N/A
Apogee: N/A
Inclination: N/A
Period: N/A
Semi major axis: N/A
RCS: N/A
Launch date: November 30, 1998
Source: COSTA RICA (CRI)
Launch site: TYURATAM MISSILE AND SPACE COMPLEX (TTMTR)
Decay date: 2020-03-04

Uplink (MHz):
Downlink (MHz): 436.500
Beacon (MHz):
Mode: 9600bps FSK
Call sign: TI0IRA
Status: Active

aabbcc
Your satellite tracking list
Your tracking list is empty




NASA's NSSDC Master Catalog

Two Line Element Set (TLE):
1 43468U 98067NR  20064.05831928  .04860327  12102-4  10158-2 0  9990
2 43468  51.6208  66.1430 0002240 149.8670 210.2481 16.30203714203978
Source of the keplerian elements: AMSAT